SCP
0 0 0 0 0 0 0 0 0 0 0 0 0 0 0 0 0 0 0 0 0 0 0 0 0 0 0 0 0 0 0 0 0 -0 0 -0 -0 -0 0 0 0 0 -0 -0 -0
0 0 0 0 0 0 0 0 0 0 0 0 0 0 0 0 0 0 0 0 0 0 0 0 0 0 0 0 0 0 0 0 0 0 0 -0 -0 -0 -0 -0 0 0 0 0 -0
0 0 0 0 0 0 0 0 0 0 0 0 0 0 0 0 0 0 0 0 0 0 0 0 0 0 0 0 0 0 0 0 0 0 0 -0 -0 -0 -0 -0 -0 -0 -0 -0 -0
0 0 0 0 0 0 0 0 0 0 0 0 0 0 0 0 0 0 0 0 0 0 0 0 0 0 0 0 0 0 0 0 0 0 0 0 0 0 -0 -0 0 -0 0 -0 -0
0 0 0 0 0 0 0 0 0 0 0 0 0 0 0 0 0 0 0 0 0 0 0 0 0 0 0 0 0 0 0 0 0 0 0 0 0 0 0 -0 0 0 0 -0 -0
0 0 0 0 0 0 0 0 0 0 0 0 0 0 0 0 0 0 0 0 0 0 0 0 0 0 0 0 0 0 0 0 0 0 0 0 0 0 0 0 0 0 -0 -0 -0
0 0 0 0 0 0 0 0 0 0 0 0 0 0 0 0 0 0 0 0 0 0 0 0 0 0 0 0 0 0 0 0 0 0 0 0 0 0 0 0 0 -0 -0 -0 -0
0 0 0 0 0 0 0 0 0 0 0 0 0 0 0 0 0 0 0 0 0 0 0 0 0 0 0 0 0 0 0 0 0 0 0 0 0 0 0 0 -0 -0 -0 -0 -0
0 0 0 0 0 0 0 0 0 0 0 0 0 0 0 0 0 0 0 0 0 0 0 0 0 0 0 0 0 0 0 0 0 0 0 0 0 0 0 0 0 0 -0 -0 0
0 0 0 0 0 0 0 0 0 0 0 0 0 0 0 0 0 0 0 0 0 0 0 0 0 0 0 0 0 0 0 0 0 0 0 0 0 0 0 0 0 0 -0 0 -0
0 0 0 0 0 0 0 0 0 0 0 0 0 0 0 0 0 0 0 0 0 0 0 0 0 0 0 0 0 0 0 0 0 0 0 0 0 0 0 0 -0 -0 0 0 0
0 0 0 0 0 0 0 0 0 0 0 0 0 0 0 0 0 0 0 0 0 0 0 0 0 0 0 0 0 0 0 0 0 0 0 0 0 0 0 0 0 0 0 0 0
0 0 0 0 0 0 0 0 0 0 0 0 0 0 0 0 0 0 0 0 0 0 0 0 0 0 0 0 0 0 0 0 0 0 0 0 -0 -0 0 0 0 0 0 0 0
0 0 0 0 0 0 0 0 0 0 0 0 0 0 0 0 0 0 0 0 0 0 0 0 0 0 0 0 0 0 0 0 0 0 0 0 -0 0 0 0 0 0 0 0 0
0 0 0 0 0 0 0 0 0 0 0 0 0 0 0 0 0 0 0 0 0 0 0 0 0 0 0 0 0 0 0 0 0 0 0 0 0 -0 0 0 0 0 0 0 0
0 0 0 0 0 0 0 0 0 0 0 0 0 0 0 0 0 0 0 0 0 0 0 0 0 0 0 0 0 0 0 0 0 0 0 0 0 0 0 0 0 0 0 0 0
0 0 0 0 0 0 0 0 0 0 0 0 0 0 0 0 0 0 0 0 0 0 0 0 0 0 0 0 0 0 0 0 0 0 0 0 0 0 0 0 0 0 0 0 0
0 0 0 0 0 0 0 0 0 0 0 0 0 0 0 0 0 0 0 0 0 0 0 0 0 0 0 0 0 0 0 0 0 0 0 0 0 0 0 0 0 0 0 0 0
0 0 0 0 0 0 0 0 0 0 0 0 0 0 0 0 0 0 0 0 0 0 0 0 0 0 0 0 0 0 0 0 0 0 0 0 0 0 0 0 0 0 0 0 0
0 0 0 0 0 0 0 0 0 0 0 0 0 0 0 0 0 0 0 0 0 0 0 0 0 0 0 0 0 0 0 0 0 0 0 0 0 0 0 0 0 0 0 0 -0
0 0 0 0 0 0 0 0 0 0 0 0 0 0 0 0 0 0 0 0 0 0 0 0 0 0 0 0 0 0 0 0 0 0 0 0 0 0 0 0 0 0 0 0 0
0 0 0 0 0 0 0 0 0 0 0 0 0 0 0 0 0 0 0 0 0 0 0 0 0 0 0 0 0 0 0 0 0 0 0 0 0 0 0 0 0 0 0 0 0
0 0 0 0 0 0 0 0 0 0 0 0 0 0 0 0 0 0 0 0 0 0 0 0 0 0 0 0 0 0 0 0 0 0 0 0 0 0 0 0 0 0 0 0 0
0 0 0 0 0 0 0 0 0 0 0 0 0 0 0 0 0 0 0 0 0 0 0 0 0 0 0 0 0 0 0 0 0 0 0 0 0 0 0 0 0 0 0 0 0
0 0 0 0 0 0 0 0 0 0 0 0 0 0 0 0 0 0 0 0 0 0 0 0 0 0 0 0 0 0 0 0 0 0 0 0 0 0 0 0 0 0 0 0 0
0 0 0 0 0 0 0 0 0 0 0 0 0 0 0 0 0 0 0 0 -0 -0 -0 0 0 0 0 0 0 0 0 0 0 0 0 0 0 0 0 0 0 0 0 0 0
0 0 0 0 0 0 0 0 0 0 0 0 0 0 0 0 0 0 0 0 0 0 -0 -0 -0 0 0 0 0 0 0 0 0 0 0 0 0 0 0 0 0 0 0 0 0
Wind_Speed_500mb
25 24 21 18 16 14 13 10 9 8 8 7 6 6 6 6 7 8 11 12 11 14 12 11 11 11 14 12 9 11 8 12 8 11 6 18 20 11 13 8 14 17 9 11 36
23 21 20 19 17 14 13 12 9 7 6 6 6 5 5 5 8 11 13 12 12 11 15 15 13 13 6 8 4 7 9 10 2 6 6 20 22 19 12 17 14 17 25 16 37
20 19 18 17 16 16 14 10 9 7 7 6 4 3 4 7 9 10 13 12 13 12 15 15 14 12 6 6 3 4 11 4 5 4 5 15 16 17 18 17 28 31 27 31 35
19 18 17 16 15 14 13 13 12 10 6 4 4 3 5 9 8 11 10 10 13 16 17 15 13 9 8 7 4 6 2 6 8 7 5 8 9 13 28 25 15 26 22 33 38
20 18 16 16 15 13 13 12 12 9 8 6 3 4 8 8 7 11 8 8 13 16 19 17 15 10 8 8 8 4 8 6 5 7 8 9 16 18 29 36 31 20 25 33 39
24 22 20 18 17 16 14 11 8 6 5 5 5 5 8 10 10 13 9 7 11 14 17 18 11 10 14 7 4 3 5 3 5 6 6 8 10 7 14 34 37 43 37 34 40
27 26 24 22 21 19 17 14 10 7 5 3 4 4 8 9 13 15 12 10 11 13 15 15 17 7 14 12 8 4 4 6 12 5 5 5 15 31 30 17 26 42 42 44 44
26 27 26 26 24 22 20 18 14 11 9 6 4 4 5 12 16 16 16 15 14 14 15 16 16 15 6 20 7 3 2 7 6 6 3 9 24 9 14 26 37 36 36 43 48
20 21 20 23 25 24 21 19 16 13 11 9 7 4 3 9 16 19 19 17 17 15 13 14 13 9 10 7 5 2 8 11 6 8 2 15 15 7 9 15 31 34 40 46 54
17 16 17 16 17 19 18 16 12 10 12 10 12 5 9 8 10 19 22 21 16 18 14 8 6 5 5 13 14 12 10 8 12 6 8 17 34 34 31 21 32 34 37 38 52
25 20 17 16 14 15 13 12 6 3 7 6 3 3 11 13 7 10 21 21 18 13 11 4 11 18 29 18 3 5 5 9 7 3 7 24 39 37 45 45 49 52 56 56 64
22 26 27 20 16 13 8 8 3 2 9 17 22 23 17 15 7 14 21 16 11 11 14 8 19 25 11 13 10 10 17 23 14 4 10 24 45 39 45 57 53 58 62 63 63
33 34 26 27 19 18 16 10 5 4 7 14 27 25 33 31 19 30 32 20 8 11 22 24 8 15 16 15 18 18 24 19 17 2 13 21 32 29 21 39 46 61 67 68 72
29 25 26 15 17 20 12 9 7 7 8 9 12 12 20 19 12 27 45 19 9 24 14 16 7 10 17 17 24 27 24 17 12 9 13 3 19 35 34 34 30 50 54 65 67
21 21 24 28 18 8 19 22 19 11 9 9 7 5 17 18 11 12 43 19 21 17 16 12 20 24 22 15 25 6 10 13 5 10 10 18 13 17 9 26 32 48 56 55 55
22 22 27 25 25 18 8 19 25 4 15 5 6 7 11 2 5 9 15 7 8 11 5 3 1 11 8 6 8 24 13 10 5 2 16 20 19 20 22 16 10 14 22 26 30
24 23 24 28 27 20 28 30 4 8 1 8 5 7 4 11 8 7 15 22 18 15 28 9 16 6 8 12 8 7 17 7 9 10 20 7 13 29 15 21 20 26 48 29 26
19 27 25 28 28 28 30 4 14 11 17 3 6 9 8 13 5 8 12 18 22 5 5 22 21 26 20 29 18 24 21 14 15 11 16 4 21 15 19 25 43 45 54 48 51
15 20 30 37 35 33 25 13 16 19 8 14 8 6 8 6 4 10 17 17 20 31 24 16 14 3 6 9 26 15 21 19 14 1 8 19 40 43 29 33 41 51 53 49 42
11 13 23 35 42 33 11 23 23 8 11 6 24 18 16 16 16 18 19 9 14 35 38 6 15 3 6 5 1 20 14 11 9 12 20 28 30 31 11 22 21 14 25 33 39
7 5 14 36 41 25 18 13 14 16 12 13 16 13 12 11 20 12 8 7 11 8 40 18 8 5 9 20 27 12 23 10 6 11 13 17 24 21 28 18 14 14 17 20 15
10 4 19 51 19 16 23 19 31 25 22 21 9 14 16 10 14 14 20 14 12 23 20 16 3 16 26 1 10 21 37 44 16 16 11 15 30 5 11 7 14 20 19 7 15
11 7 15 55 16 20 16 28 25 12 21 14 23 22 12 23 13 25 22 10 18 16 18 16 10 8 12 6 4 16 24 24 42 2 25 24 26 2 14 23 8 13 12 14 12
15 7 12 41 21 21 25 28 28 24 29 19 12 14 15 14 15 5 11 5 8 11 17 6 13 20 31 24 6 16 34 39 37 18 40 38 55 56 32 18 22 34 35 26 23
33 12 16 14 25 21 23 14 34 24 22 28 23 34 25 12 20 17 21 4 13 29 11 4 12 33 49 45 22 16 22 43 45 55 43 59 53 71 51 41 55 66 78 62 70
22 15 14 4 19 32 27 28 34 23 21 28 30 18 10 36 41 39 34 27 16 11 7 13 8 7 38 47 37 43 32 28 49 55 48 61 58 66 75 69 56 57 50 54 67
36 39 18 21 15 22 34 44 22 25 18 28 18 9 21 27 9 16 12 21 16 7 3 6 12 7 27 35 28 33 50 51 46 45 47 47 63 51 47 43 54 57 57 72 78
Wind_Direction_500mb
180 179 179 179 179 176 173 176 173 181 178 181 185 198 198 201 216 200 189 183 187 182 187 182 172 169 160 152 140 137 223 237 225 195 201 163 192 186 204 200 198 205 199 208 184
184 183 183 179 179 180 173 173 175 188 192 198 202 207 196 194 194 201 200 186 192 182 186 188 176 161 131 126 125 190 230 230 176 227 236 183 198 184 185 200 227 230 222 200 188
190 188 187 182 181 179 178 176 170 181 196 194 206 212 190 178 180 203 200 190 198 189 189 188 177 165 117 129 132 155 244 160 190 224 259 196 212 183 207 212 220 221 216 216 197
193 193 190 190 189 185 180 176 181 186 174 167 187 183 184 178 219 181 184 187 193 190 188 179 180 143 133 172 128 205 159 170 139 202 216 219 191 207 215 226 211 224 217 224 215
190 199 202 197 198 195 199 195 196 180 173 150 140 167 173 179 186 168 149 168 180 184 188 182 180 152 153 150 128 202 163 178 172 189 232 232 236 236 239 234 233 229 226 227 225
195 200 207 208 210 210 209 219 222 211 182 161 159 159 170 192 191 180 157 150 163 173 180 169 189 173 116 125 185 103 180 190 207 202 244 253 259 244 250 232 236 237 237 235 234
208 209 214 218 222 222 223 221 224 237 236 212 186 183 190 198 187 184 184 168 148 156 163 156 153 136 136 126 119 101 239 276 224 187 235 248 246 240 244 237 228 236 237 237 238
218 221 219 226 227 235 236 233 230 231 239 242 258 253 187 181 189 180 181 177 156 152 152 144 142 128 83 122 75 162 221 234 132 182 197 194 261 258 233 239 246 244 241 242 239
217 215 218 227 228 226 233 236 234 232 238 239 244 229 210 199 203 189 180 181 163 158 146 141 147 107 120 166 181 209 238 224 273 186 205 219 273 273 268 238 256 252 250 247 248
213 221 206 211 221 215 218 220 221 239 247 242 230 249 214 189 185 190 182 169 155 152 135 150 97 161 147 196 233 206 218 223 248 134 221 241 253 266 262 251 259 265 264 256 253
216 212 221 204 181 179 166 166 213 229 210 219 189 154 129 151 160 197 185 181 155 157 178 91 204 214 227 221 234 124 209 247 236 147 261 255 266 267 270 268 262 262 259 256 255
265 210 218 215 187 184 184 124 24 334 303 267 254 248 237 219 203 183 180 173 170 181 135 163 226 232 107 169 190 215 253 257 279 199 231 278 277 276 265 260 257 260 258 254 255
253 252 214 234 245 248 252 274 299 329 275 264 239 239 234 234 224 209 186 174 149 159 199 215 187 166 177 177 201 225 235 248 264 323 235 291 272 262 259 256 260 257 256 257 254
213 236 253 222 248 251 261 276 247 139 263 232 217 220 209 186 238 207 191 182 177 201 181 244 194 171 183 211 202 241 213 235 255 285 272 272 288 280 276 264 248 259 255 257 258
198 195 208 205 241 248 248 248 186 156 255 107 166 191 170 184 150 187 186 201 183 170 173 203 181 195 214 221 190 237 131 180 179 242 306 213 256 260 263 269 256 251 255 257 263
197 196 187 178 182 185 175 157 149 111 219 193 138 154 152 160 106 106 170 169 145 138 249 286 354 192 201 95 182 139 95 78 83 242 264 243 230 261 253 248 277 261 264 269 271
218 202 189 183 191 161 160 149 112 210 9 173 169 171 189 172 162 170 172 185 182 185 223 184 215 177 168 116 92 209 170 207 223 198 249 82 238 250 263 260 242 273 288 286 275
239 216 198 187 184 192 177 125 203 209 206 110 118 110 196 159 196 160 160 208 227 193 149 210 233 185 183 214 180 197 200 212 229 214 262 110 239 259 234 268 276 269 267 270 274
253 226 208 189 193 186 178 213 218 226 173 180 142 181 197 194 227 185 216 235 214 200 207 192 241 187 219 181 182 179 217 249 267 138 293 250 264 273 239 257 242 256 264 273 276
265 236 219 197 193 189 190 226 221 208 134 178 214 205 230 204 195 197 188 220 224 202 214 221 256 175 148 154 224 213 152 190 213 227 236 252 259 256 279 294 272 254 270 283 278
272 225 198 183 183 191 218 221 248 214 211 225 219 241 224 193 204 189 245 247 213 185 204 221 245 140 163 205 182 185 215 218 235 220 245 258 255 259 256 261 281 304 308 302 299
179 218 181 167 169 199 218 210 232 218 220 238 251 248 226 214 213 225 230 228 164 145 168 207 254 252 233 193 249 237 226 210 216 211 244 267 263 162 255 246 302 319 310 288 297
200 228 189 173 198 207 213 227 236 210 209 198 223 221 225 245 255 235 245 227 211 179 175 176 178 240 259 213 210 228 215 222 227 46 224 227 253 132 264 266 298 288 326 274 284
176 195 202 206 224 225 208 222 220 219 232 223 248 219 211 226 242 284 317 350 295 241 326 339 185 222 238 245 120 208 225 214 205 220 236 236 250 259 241 259 262 274 288 286 285
195 215 187 197 219 210 209 222 217 217 213 211 239 232 224 241 215 222 227 249 300 314 357 297 236 235 247 257 255 249 221 215 215 226 223 246 240 257 257 256 260 275 282 284 278
194 188 193 211 205 199 211 223 221 208 210 219 240 212 196 240 246 267 274 256 229 219 225 208 244 272 254 256 251 255 257 239 220 230 239 246 254 251 262 262 264 263 266 272 275
209 207 189 199 179 186 214 225 215 208 227 232 223 179 228 246 261 266 277 282 280 311 276 224 182 210 263 260 256 243 239 242 246 240 236 239 244 263 266 261 262 265 259 259 265
Wind_Speed_850mb
25 24 21 18 16 14 13 10 9 8 8 7 6 6 6 6 7 8 11 12 11 14 12 11 11 11 14 12 9 11 8 12 8 11 6 18 20 11 13 8 14 17 9 11 36
23 21 20 19 17 14 13 12 9 7 6 6 6 5 5 5 8 11 13 12 12 11 15 15 13 13 6 8 4 7 9 10 2 6 6 20 22 19 12 17 14 17 25 16 37
20 19 18 17 16 16 14 10 9 7 7 6 4 3 4 7 9 10 13 12 13 12 15 15 14 12 6 6 3 4 11 4 5 4 5 15 16 17 18 17 28 31 27 31 35
19 18 17 16 15 14 13 13 12 10 6 4 4 3 5 9 8 11 10 10 13 16 17 15 13 9 8 7 4 6 2 6 8 7 5 8 9 13 28 25 15 26 22 33 38
20 18 16 16 15 13 13 12 12 9 8 6 3 4 8 8 7 11 8 8 13 16 19 17 15 10 8 8 8 4 8 6 5 7 8 9 16 18 29 36 31 20 25 33 39
24 22 20 18 17 16 14 11 8 6 5 5 5 5 8 10 10 13 9 7 11 14 17 18 11 10 14 7 4 3 5 3 5 6 6 8 10 7 14 34 37 43 37 34 40
27 26 24 22 21 19 17 14 10 7 5 3 4 4 8 9 13 15 12 10 11 13 15 15 17 7 14 12 8 4 4 6 12 5 5 5 15 31 30 17 26 42 42 44 44
26 27 26 26 24 22 20 18 14 11 9 6 4 4 5 12 16 16 16 15 14 14 15 16 16 15 6 20 7 3 2 7 6 6 3 9 24 9 14 26 37 36 36 43 48
20 21 20 23 25 24 21 19 16 13 11 9 7 4 3 9 16 19 19 17 17 15 13 14 13 9 10 7 5 2 8 11 6 8 2 15 15 7 9 15 31 34 40 46 54
17 16 17 16 17 19 18 16 12 10 12 10 12 5 9 8 10 19 22 21 16 18 14 8 6 5 5 13 14 12 10 8 12 6 8 17 34 34 31 21 32 34 37 38 52
25 20 17 16 14 15 13 12 6 3 7 6 3 3 11 13 7 10 21 21 18 13 11 4 11 18 29 18 3 5 5 9 7 3 7 24 39 37 45 45 49 52 56 56 64
22 26 27 20 16 13 8 8 3 2 9 17 22 23 17 15 7 14 21 16 11 11 14 8 19 25 11 13 10 10 17 23 14 4 10 24 45 39 45 57 53 58 62 63 63
33 34 26 27 19 18 16 10 5 4 7 14 27 25 33 31 19 30 32 20 8 11 22 24 8 15 16 15 18 18 24 19 17 2 13 21 32 29 21 39 46 61 67 68 72
29 25 26 15 17 20 12 9 7 7 8 9 12 12 20 19 12 27 45 19 9 24 14 16 7 10 17 17 24 27 24 17 12 9 13 3 19 35 34 34 30 50 54 65 67
21 21 24 28 18 8 19 22 19 11 9 9 7 5 17 18 11 12 43 19 21 17 16 12 20 24 22 15 25 6 10 13 5 10 10 18 13 17 9 26 32 48 56 55 55
22 22 27 25 25 18 8 19 25 4 15 5 6 7 11 2 5 9 15 7 8 11 5 3 1 11 8 6 8 24 13 10 5 2 16 20 19 20 22 16 10 14 22 26 30
24 23 24 28 27 20 28 30 4 8 1 8 5 7 4 11 8 7 15 22 18 15 28 9 16 6 8 12 8 7 17 7 9 10 20 7 13 29 15 21 20 26 48 29 26
19 27 25 28 28 28 30 4 14 11 17 3 6 9 8 13 5 8 12 18 22 5 5 22 21 26 20 29 18 24 21 14 15 11 16 4 21 15 19 25 43 45 54 48 51
15 20 30 37 35 33 25 13 16 19 8 14 8 6 8 6 4 10 17 17 20 31 24 16 14 3 6 9 26 15 21 19 14 1 8 19 40 43 29 33 41 51 53 49 42
11 13 23 35 42 33 11 23 23 8 11 6 24 18 16 16 16 18 19 9 14 35 38 6 15 3 6 5 1 20 14 11 9 12 20 28 30 31 11 22 21 14 25 33 39
7 5 14 36 41 25 18 13 14 16 12 13 16 13 12 11 20 12 8 7 11 8 40 18 8 5 9 20 27 12 23 10 6 11 13 17 24 21 28 18 14 14 17 20 15
10 4 19 51 19 16 23 19 31 25 22 21 9 14 16 10 14 14 20 14 12 23 20 16 3 16 26 1 10 21 37 44 16 16 11 15 30 5 11 7 14 20 19 7 15
11 7 15 55 16 20 16 28 25 12 21 14 23 22 12 23 13 25 22 10 18 16 18 16 10 8 12 6 4 16 24 24 42 2 25 24 26 2 14 23 8 13 12 14 12
15 7 12 41 21 21 25 28 28 24 29 19 12 14 15 14 15 5 11 5 8 11 17 6 13 20 31 24 6 16 34 39 37 18 40 38 55 56 32 18 22 34 35 26 23
33 12 16 14 25 21 23 14 34 24 22 28 23 34 25 12 20 17 21 4 13 29 11 4 12 33 49 45 22 16 22 43 45 55 43 59 53 71 51 41 55 66 78 62 70
22 15 14 4 19 32 27 28 34 23 21 28 30 18 10 36 41 39 34 27 16 11 7 13 8 7 38 47 37 43 32 28 49 55 48 61 58 66 75 69 56 57 50 54 67
36 39 18 21 15 22 34 44 22 25 18 28 18 9 21 27 9 16 12 21 16 7 3 6 12 7 27 35 28 33 50 51 46 45 47 47 63 51 47 43 54 57 57 72 78
Wind_Direction_850mb
180 179 179 179 179 176 173 176 173 181 178 181 185 198 198 201 216 200 189 183 187 182 187 182 172 169 160 152 140 137 223 237 225 195 201 163 192 186 204 200 198 205 199 208 184
184 183 183 179 179 180 173 173 175 188 192 198 202 207 196 194 194 201 200 186 192 182 186 188 176 161 131 126 125 190 230 230 176 227 236 183 198 184 185 200 227 230 222 200 188
190 188 187 182 181 179 178 176 170 181 196 194 206 212 190 178 180 203 200 190 198 189 189 188 177 165 117 129 132 155 244 160 190 224 259 196 212 183 207 212 220 221 216 216 197
193 193 190 190 189 185 180 176 181 186 174 167 187 183 184 178 219 181 184 187 193 190 188 179 180 143 133 172 128 205 159 170 139 202 216 219 191 207 215 226 211 224 217 224 215
190 199 202 197 198 195 199 195 196 180 173 150 140 167 173 179 186 168 149 168 180 184 188 182 180 152 153 150 128 202 163 178 172 189 232 232 236 236 239 234 233 229 226 227 225
195 200 207 208 210 210 209 219 222 211 182 161 159 159 170 192 191 180 157 150 163 173 180 169 189 173 116 125 185 103 180 190 207 202 244 253 259 244 250 232 236 237 237 235 234
208 209 214 218 222 222 223 221 224 237 236 212 186 183 190 198 187 184 184 168 148 156 163 156 153 136 136 126 119 101 239 276 224 187 235 248 246 240 244 237 228 236 237 237 238
218 221 219 226 227 235 236 233 230 231 239 242 258 253 187 181 189 180 181 177 156 152 152 144 142 128 83 122 75 162 221 234 132 182 197 194 261 258 233 239 246 244 241 242 239
217 215 218 227 228 226 233 236 234 232 238 239 244 229 210 199 203 189 180 181 163 158 146 141 147 107 120 166 181 209 238 224 273 186 205 219 273 273 268 238 256 252 250 247 248
213 221 206 211 221 215 218 220 221 239 247 242 230 249 214 189 185 190 182 169 155 152 135 150 97 161 147 196 233 206 218 223 248 134 221 241 253 266 262 251 259 265 264 256 253
216 212 221 204 181 179 166 166 213 229 210 219 189 154 129 151 160 197 185 181 155 157 178 91 204 214 227 221 234 124 209 247 236 147 261 255 266 267 270 268 262 262 259 256 255
265 210 218 215 187 184 184 124 24 334 303 267 254 248 237 219 203 183 180 173 170 181 135 163 226 232 107 169 190 215 253 257 279 199 231 278 277 276 265 260 257 260 258 254 255
253 252 214 234 245 248 252 274 299 329 275 264 239 239 234 234 224 209 186 174 149 159 199 215 187 166 177 177 201 225 235 248 264 323 235 291 272 262 259 256 260 257 256 257 254
213 236 253 222 248 251 261 276 247 139 263 232 217 220 209 186 238 207 191 182 177 201 181 244 194 171 183 211 202 241 213 235 255 285 272 272 288 280 276 264 248 259 255 257 258
198 195 208 205 241 248 248 248 186 156 255 107 166 191 170 184 150 187 186 201 183 170 173 203 181 195 214 221 190 237 131 180 179 242 306 213 256 260 263 269 256 251 255 257 263
197 196 187 178 182 185 175 157 149 111 219 193 138 154 152 160 106 106 170 169 145 138 249 286 354 192 201 95 182 139 95 78 83 242 264 243 230 261 253 248 277 261 264 269 271
218 202 189 183 191 161 160 149 112 210 9 173 169 171 189 172 162 170 172 185 182 185 223 184 215 177 168 116 92 209 170 207 223 198 249 82 238 250 263 260 242 273 288 286 275
239 216 198 187 184 192 177 125 203 209 206 110 118 110 196 159 196 160 160 208 227 193 149 210 233 185 183 214 180 197 200 212 229 214 262 110 239 259 234 268 276 269 267 270 274
253 226 208 189 193 186 178 213 218 226 173 180 142 181 197 194 227 185 216 235 214 200 207 192 241 187 219 181 182 179 217 249 267 138 293 250 264 273 239 257 242 256 264 273 276
265 236 219 197 193 189 190 226 221 208 134 178 214 205 230 204 195 197 188 220 224 202 214 221 256 175 148 154 224 213 152 190 213 227 236 252 259 256 279 294 272 254 270 283 278
272 225 198 183 183 191 218 221 248 214 211 225 219 241 224 193 204 189 245 247 213 185 204 221 245 140 163 205 182 185 215 218 235 220 245 258 255 259 256 261 281 304 308 302 299
179 218 181 167 169 199 218 210 232 218 220 238 251 248 226 214 213 225 230 228 164 145 168 207 254 252 233 193 249 237 226 210 216 211 244 267 263 162 255 246 302 319 310 288 297
200 228 189 173 198 207 213 227 236 210 209 198 223 221 225 245 255 235 245 227 211 179 175 176 178 240 259 213 210 228 215 222 227 46 224 227 253 132 264 266 298 288 326 274 284
176 195 202 206 224 225 208 222 220 219 232 223 248 219 211 226 242 284 317 350 295 241 326 339 185 222 238 245 120 208 225 214 205 220 236 236 250 259 241 259 262 274 288 286 285
195 215 187 197 219 210 209 222 217 217 213 211 239 232 224 241 215 222 227 249 300 314 357 297 236 235 247 257 255 249 221 215 215 226 223 246 240 257 257 256 260 275 282 284 278
194 188 193 211 205 199 211 223 221 208 210 219 240 212 196 240 246 267 274 256 229 219 225 208 244 272 254 256 251 255 257 239 220 230 239 246 254 251 262 262 264 263 266 272 275
209 207 189 199 179 186 214 225 215 208 227 232 223 179 228 246 261 266 277 282 280 311 276 224 182 210 263 260 256 243 239 242 246 240 236 239 244 263 266 261 262 265 259 259 265